星链-1525 (STARLINK-1525 )

导读 | 豆包AI

STARLINK-1525是美国太空探索技术公司星链(Starlink)项目中的卫星,于2020年8月7日发射升空,属于星链低轨互联网星座的组成部分。该卫星运行在近地轨道,主要用于提供全球范围的高速互联网接入服务,推进星链星座组网进程,服务各类网络应用需求。

基本信息
目录编号:
46066
目录名称:
STARLINK-1525
国际标识:
2020-055AR
轨道中心:
EARTH
卫星名称:
星链-1525
卫星全名:
星链-1525 (STARLINK-1525 )
卫星状态:
在轨 (已飞行2045 天)
发射日期:
2020-08-07 UTC
国别 :
美国 (US)
星等 :
--
轨道信息
数据来源 国际轨道数据
星历时间: 2026-03-14T08:00:02+0800
11小时前
查看轨道信息
半长轴: 6894.78km
偏心率: 0.0001543
轨道倾角: 53.056°
近地点辐角 92.172°
升交点赤经 76.788°
平近点角 57.416°
近地点: 515.579km
远地点: 517.707km
周期: 94.960分钟
每日圈数: 15.164295
详细信息
固有亮度:
5
最大亮度:
2.5
卫星平台:
Starlink V1.0
覆盖范围:
全球
运营商:
太空探索技术公司
运营商所在国:
美国
制造商(研发单位):
太空探索技术公司
制造商所在国:
美国
使用方式:
暂无
卫星简介
星链(Starlink)计划是由太空探索技术公司(SpaceX)提出的一个巨型低轨卫星互联网星座项目,计划在2019年至2024年间在太空搭建由约1.2万颗卫星组成的“星链”网络,其中1584颗将部署在地球上空550千米处的近地轨道,并从2020年开始工作。该卫星仍在工作。
2D轨道图
3D轨道图
轨道高度分析图
轨道倾角分析图
轨道综合分析图
查看轨道综合分析图